EW5463 Weather Reports


time (UTC)temp
F
wind
direction
speed
knots
gust
knots
rain 1hr
in
rain 24hr
in
rain mn
in
humidity
%
barometer
mb
20260906103059 72 0 0.0 0.0 0.00 0.00 0.00 94 1010.3
20260906101558 72 0 0.0 0.0 0.00 0.00 0.00 94 1010.3
20260906100051 72 0 0.0 0.0 0.00 0.00 0.00 94 1010.3
20260906094611 72 0 0.0 0.0 0.00 0.00 0.00 94 1010.4
20260906093128 72 0 0.0 0.0 0.00 0.00 0.00 94 1010.4
20260906091612 72 0 0.0 0.0 0.00 0.00 0.00 93 1010.3
20260906084554 72 0 0.0 0.0 0.00 0.00 0.00 93 1010.5
20260906083054 72 0 0.0 0.0 0.00 0.00 0.00 93 1010.3
20260906081549 72 0 0.0 0.0 0.00 0.00 0.00 93 1009.9
20260906074558 73 0 0.0 0.0 0.00 0.00 0.00 92 1010.0
20260906073053 73 0 0.0 0.0 0.00 0.00 0.00 92 1009.9
20260906071548 73 0 0.0 0.0 0.00 0.00 0.00 92 1010.3
20260906070057 73 0 0.0 0.0 0.00 0.00 0.00 92 1010.3
20260906064550 74 0 0.0 0.0 0.00 0.00 0.00 92 1010.6
20260906063051 74 0 0.0 0.0 0.00 0.00 0.00 91 1010.5
20260906061558 74 0 0.0 0.0 0.00 0.00 0.00 91 1010.6
20260906060057 74 0 0.0 0.0 0.00 0.00 0.00 91 1010.9
20260906054550 75 0 0.0 0.0 0.00 0.00 0.00 90 1010.9
20260906053057 75 0 0.0 0.0 0.00 0.00 0.00 90 1011.0
20260906051556 75 0 0.0 0.0 0.00 0.00 0.00 89 1011.1
20260906050105 75 0 0.0 0.0 0.00 0.00 0.00 89 1011.2
20260906044556 76 0 0.0 0.0 0.00 0.00 0.00 88 1011.2
20260906043056 76 0 0.0 0.0 0.00 0.00 0.00 87 1011.3
20260906041555 77 0 0.0 0.0 0.00 0.00 0.00 86 1011.3
20260906040100 77 0 0.0 0.0 0.00 0.00 0.00 85 1011.1
20260906034546 77 0 0.0 0.0 0.00 0.00 0.00 84 1011.3
20260906033049 78 0 0.0 0.0 0.00 0.00 0.00 84 1011.1
20260906031555 78 0 0.0 0.0 0.00 0.00 0.00 83 1011.2
20260906030050 79 0 0.0 0.0 0.00 0.00 0.00 80 1011.1
20260906024550 79 0 0.0 0.0 0.00 0.00 0.00 81 1011.0
20260906023056 79 0 0.0 0.0 0.00 0.00 0.00 82 1010.8
20260906021556 79 0 0.0 0.0 0.00 0.00 0.00 84 1010.7
20260906020052 80 0 0.0 0.0 0.00 0.00 0.00 83 1010.7
20260906014618 80 0 0.0 0.0 0.00 0.00 0.00 81 1010.6
20260906013055 81 0 0.0 0.0 0.00 0.00 0.00 79 1010.5
20260906011549 82 0 0.0 0.0 0.00 0.00 0.00 79 1010.2
20260906010057 82 0 0.0 0.9 0.00 0.00 0.00 76 1010.5
20260906004608 83 0 0.0 0.0 0.00 0.00 0.00 76 1010.6
20260906003054 83 0 0.0 0.0 0.00 0.00 0.00 75 1010.8
20260906001548 84 0 0.0 0.0 0.00 0.00 0.00 73 1010.7
20260906000056 84 0 0.0 1.7 0.00 0.00 0.00 73 1010.7
20260905234554 85 270 0.0 1.7 0.00 0.00 0.00 71 1010.7
20260905233053 86 0 0.0 2.6 0.00 0.00 0.00 70 1010.9
20260905231558 86 270 1.7 3.5 0.00 0.00 0.00 69 1010.8
20260905230052 86 270 2.6 4.3 0.00 0.00 0.00 70 1010.6
20260905224610 86 0 0.0 0.0 0.00 0.00 0.00 69 1010.2
20260905223054 87 0 0.0 0.0 0.00 0.00 0.00 68 1010.3
20260905221607 89 270 0.9 3.5 0.00 0.00 0.00 66 1009.1
20260905220057 91 0 0.0 0.0 0.00 0.00 0.00 59 1008.8
20260905214549 91 0 0.0 0.0 0.00 0.00 0.00 56 1008.9
20260905213058 92 0 0.0 0.0 0.00 0.00 0.00 55 1009.0
20260905211601 94 0 0.0 0.9 0.00 0.00 0.00 55 1009.3
20260905210057 95 0 0.0 0.0 0.00 0.00 0.00 56 1008.8
20260905204549 95 0 0.0 0.0 0.00 0.00 0.00 54 1008.4
20260905203105 95 0 0.0 0.0 0.00 0.00 0.00 58 1008.8
20260905201615 94 0 0.0 0.0 0.00 0.00 0.00 64 1008.6
20260905200057 96 0 0.0 0.0 0.00 0.00 0.00 59 1008.6
20260905194551 98 0 0.0 0.0 0.00 0.00 0.00 56 1008.8
20260905193112 101 0 0.0 0.0 0.00 0.00 0.00 45 1008.8
20260905191554 102 0 0.0 0.9 0.00 0.00 0.00 43 1009.1
20260905190058 103 0 0.0 0.9 0.00 0.00 0.00 45 1009.1
20260905184556 102 0 0.0 0.0 0.00 0.00 0.00 47 1009.4
20260905183048 102 0 0.0 2.6 0.00 0.00 0.00 47 1009.8
20260905181606 103 0 0.0 2.6 0.00 0.00 0.00 47 1010.0
20260905180052 102 0 0.0 0.0 0.00 0.00 0.00 49 1010.5
20260905174604 100 0 0.0 0.0 0.00 0.00 0.00 53 1010.9
20260905173055 99 0 0.0 0.9 0.00 0.00 0.00 54 1011.1
20260905171550 98 0 0.0 0.0 0.00 0.00 0.00 56 1011.3
20260905170047 96 0 0.0 0.0 0.00 0.00 0.00 59 1011.5
20260905164557 95 0 0.0 0.0 0.00 0.00 0.00 61 1011.7
20260905163051 94 0 0.0 0.0 0.00 0.00 0.00 63 1011.9
20260905161559 93 0 0.0 0.0 0.00 0.00 0.00 65 1012.1
20260905160100 92 0 0.0 0.0 0.00 0.00 0.00 67 1012.3
20260905154557 92 0 0.0 0.0 0.00 0.00 0.00 67 1012.5
20260905153058 91 0 0.0 0.0 0.00 0.00 0.00 71 1012.6
20260905151601 90 0 0.0 0.0 0.00 0.00 0.00 72 1012.7
20260905150055 89 0 0.0 0.0 0.00 0.00 0.00 73 1012.9
20260905144550 88 0 0.0 0.0 0.00 0.00 0.00 76 1013.0
20260905143058 87 0 0.0 0.9 0.00 0.00 0.00 78 1013.0
20260905141555 86 0 0.0 0.0 0.00 0.00 0.00 79 1013.2
20260905140105 85 0 0.0 0.0 0.00 0.00 0.00 82 1013.3
20260905134557 84 0 0.0 0.0 0.00 0.00 0.00 85 1013.3
20260905133052 83 0 0.0 0.0 0.00 0.00 0.00 87 1013.4
20260905131556 82 0 0.0 0.0 0.00 0.00 0.00 89 1013.3
20260905130057 81 0 0.0 0.0 0.00 0.00 0.00 92 1013.4
20260905124601 80 0 0.0 0.0 0.00 0.00 0.00 92 1013.3
20260905123056 79 0 0.0 0.0 0.00 0.00 0.00 93 1013.2
20260905121547 79 0 0.0 0.0 0.00 0.00 0.00 93 1013.2
20260905120058 78 0 0.0 0.0 0.00 0.00 0.00 93 1013.1
20260905114553 78 0 0.0 0.0 0.00 0.00 0.00 93 1013.0
20260905113048 78 0 0.0 0.0 0.00 0.00 0.00 93 1012.8
20260905111557 78 0 0.0 0.0 0.00 0.00 0.00 93 1012.7
20260905110100 78 0 0.0 0.0 0.00 0.00 0.00 93 1012.8
20260905104610 78 0 0.0 0.0 0.00 0.00 0.00 93 1012.7